SCP
0 0 0 0 0 0 0 0 0 0 0 0 0 0 -0 -0 0 0 0 0 0 0 0 0 0 0 0 0 0 0 0 0 0 0 0 0 0 0 0 0 0 0 0 0
0 0 0 0 0 0 0 0 0 0 0 0 0 0 0 0 0 0 0 0 0 0 0 0 0 0 0 0 0 0 0 0 0 0 0 0 0 0 0 0 0 0 0 0
0 0 0 0 0 0 0 0 0 0 0 0 0 0 0 0 0 0 0 0 0 0 0 0 0 0 0 0 0 0 0 0 0 0 0 0 0 0 0 0 0 0 0 0
0 0 0 0 0 0 0 0 0 0 0 0 0 0 0 0 0 0 0 0 0 0 0 0 0 0 0 0 0 0 0 0 0 0 0 0 0 0 0 0 0 0 0 0
0 0 0 0 0 0 0 0 0 0 0 0 0 0 0 0 0 0 0 0 0 0 0 0 0 0 0 0 0 0 0 0 0 0 0 0 0 0 0 0 0 0 0 0
0 0 0 0 0 0 0 0 0 0 0 0 0 0 0 0 0 0 0 0 0 0 0 0 0 0 0 0 0 0 0 0 0 0 0 0 0 0 0 0 0 0 0 0
0 0 0 0 0 0 0 0 0 0 0 0 0 0 0 0 0 0 0 0 0 0 0 0 0 0 0 0 0 0 0 0 0 0 0 0 0 0 0 0 0 0 0 0
0 0 0 0 0 0 0 0 0 0 0 0 0 0 0 0 0 0 0 0 0 0 0 0 0 0 0 0 0 0 0 0 0 0 0 0 0 0 0 0 0 0 0 0
0 0 0 0 0 0 0 0 0 0 0 0 0 0 0 0 0 0 0 0 0 0 0 0 0 0 0 0 0 0 0 0 0 0 0 0 0 0 0 0 0 0 0 0
0 0 0 0 0 0 0 0 0 0 0 0 0 0 0 0 0 0 0 0 0 0 0 0 0 0 0 0 0 0 0 0 0 0 0 0 0 0 0 0 0 0 0 0
0 0 0 0 0 0 0 0 0 0 0 0 0 0 0 0 0 0 0 0 0 0 0 0 0 0 0 0 0 0 0 0 0 0 0 0 0 0 0 0 0 0 0 0
0 0 0 0 0 0 0 0 0 0 0 0 0 0 0 0 0 0 0 0 0 0 0 0 0 0 0 0 0 0 0 0 0 0 0 0 0 0 0 0 0 0 0 0
0 0 0 0 0 0 0 0 0 0 0 0 0 0 0 0 0 0 0 0 0 0 0 0 0 0 0 0 0 0 0 0 0 0 0 0 0 0 0 0 0 0 0 0
0 0 0 0 0 0 0 0 0 0 0 0 0 0 0 0 0 0 0 0 0 0 0 0 0 0 0 0 0 0 0 0 0 0 0 0 0 0 0 0 0 0 0 0
0 0 0 0 0 0 0 0 0 0 0 0 0 0 0 0 0 0 0 0 0 0 0 0 0 0 0 0 0 0 0 0 0 0 0 0 0 0 0 0 0 0 0 0
0 0 0 0 0 -0 0 0 0 0 0 0 0 0 0 0 0 0 0 0 0 0 0 0 0 0 0 0 0 0 0 0 0 0 0 0 0 0 0 0 0 0 0 0
0 0 0 0 0 0 0 0 0 0 0 0 0 0 0 0 -0 0 0 0 0 0 0 0 0 0 0 0 0 0 0 0 0 0 0 0 0 0 0 0 0 0 0 0
0 0 0 0 0 0 0 0 0 0 0 0 0 0 0 0 0 0 0 0 0 0 0 0 0 0 0 0 0 0 0 0 0 0 0 0 0 0 0 0 0 0 0 0
0 0 -0 -0 0 0 0 0 0 0 0 -0 0 0 0 0 0 0 0 0 0 0 -0 0 0 0 0 0 0 0 0 0 0 0 0 0 0 0 0 0 0 0 0 0
0 0 0 -0 0 0 0 0 0 0 0 0 0 0 0 0 0 0 0 0 0 0 0 0 0 0 0 0 0 0 0 0 0 0 0 0 0 0 0 0 0 0 0 0
-0 -0 -0 -0 -0 -0 -0 0 0 0 0 0 0 0 0 0 0 0 0 0 0 0 0 0 0 0 0 0 0 0 0 0 0 0 0 0 0 0 0 0 0 0 0 0
-0 -0 -0 -0 -0 -0 0 0 0 0 0 0 0 0 0 0 0 0 0 0 0 0 0 0 0 0 0 0 0 0 0 0 0 0 0 0 0 0 0 0 0 0 0 0
0 0 0 0 0 0 0 0 0 0 0 0 0 0 0 0 0 0 0 0 0 0 0 0 0 0 0 0 0 0 0 0 0 0 0 0 0 0 0 0 0 0 0 0
0 0 0 0 0 0 0 0 0 0 0 0 0 0 0 0 0 0 0 0 0 0 0 0 0 0 0 0 0 0 0 0 0 0 0 0 0 0 0 0 0 0 0 0
0 0 0 0 0 0 0 0 0 0 0 0 0 0 0 0 0 0 0 0 0 0 0 0 0 0 0 0 0 0 0 0 0 0 0 0 0 0 0 0 0 0 0 0
0 0 0 0 0 0 0 0 0 0 0 0 0 0 0 0 0 0 0 0 0 0 0 0 0 0 0 0 0 0 0 0 0 0 0 0 0 0 0 0 0 0 0 0
0 0 0 0 0 0 0 0 0 0 0 0 0 0 0 0 0 0 0 0 0 0 0 0 0 0 0 0 0 0 0 0 0 0 0 0 0 0 0 0 0 0 0 0
Wind_Speed_500mb
5 10 8 8 22 31 29 26 20 7 14 13 17 11 26 53 47 41 48 54 58 63 63 57 50 55 54 54 50 45 42 41 40 37 35 32 29 26 20 16 14 13 13 11
2 6 2 7 12 13 12 8 13 17 26 16 41 45 48 53 53 52 49 54 55 54 49 59 58 59 62 61 56 50 44 42 40 38 36 32 29 25 21 18 16 14 12 10
6 3 3 11 14 15 11 11 16 17 21 9 15 22 40 49 47 47 50 49 50 47 41 46 48 56 61 62 58 52 46 42 40 37 36 33 30 26 23 19 15 12 12 10
6 4 4 10 5 17 30 25 21 17 13 29 28 48 45 44 42 47 47 43 40 35 43 48 49 44 50 52 54 50 45 41 39 38 36 34 30 27 22 18 17 18 12 9
9 8 10 8 8 15 15 22 23 22 25 33 38 21 34 26 25 33 39 42 40 42 41 45 39 37 43 47 50 46 43 39 37 36 34 32 30 28 24 19 17 16 12 8
5 10 17 11 16 25 11 21 29 39 27 32 13 7 8 24 30 38 45 45 40 50 42 44 40 37 37 41 44 43 40 38 35 33 31 30 29 24 20 19 18 14 9 5
7 6 17 17 13 28 10 14 42 48 39 31 12 27 28 31 33 40 42 46 53 48 44 41 40 36 37 38 42 40 37 33 32 32 31 27 24 19 20 18 15 10 6 6
6 4 26 27 5 23 35 10 18 25 30 32 37 39 38 49 48 44 45 48 48 47 45 40 37 35 38 37 37 35 34 33 34 32 30 26 21 24 21 17 13 12 8 6
20 16 9 36 47 62 57 48 46 44 43 42 38 44 60 59 50 45 45 46 47 47 45 41 38 36 36 34 35 35 34 35 34 32 29 25 27 23 19 15 12 10 6 7
8 15 26 26 58 52 48 56 60 65 49 52 61 74 64 54 52 51 48 47 47 47 46 45 43 40 36 36 35 35 36 37 35 33 29 31 27 22 18 14 12 10 8 9
10 24 7 35 53 62 59 61 69 70 69 70 66 63 51 53 55 54 51 49 48 48 47 47 44 40 36 34 35 38 39 39 37 34 32 29 24 19 16 15 13 10 9 9
17 28 16 44 70 71 65 65 65 66 69 73 71 56 57 63 61 57 53 48 50 49 47 46 43 39 37 38 40 43 44 41 36 35 32 27 23 20 16 14 13 12 12 12
44 74 72 82 87 84 81 89 85 82 79 74 65 65 61 56 56 53 49 49 49 48 45 44 42 42 44 44 44 44 40 39 38 34 29 24 20 17 15 14 12 12 14 18
74 81 71 95 70 85 62 54 53 57 64 71 74 60 55 53 54 51 50 47 46 45 44 43 46 47 46 46 46 43 41 38 32 27 25 22 20 18 15 13 15 16 19 22
82 81 88 99 87 88 88 81 76 76 74 71 63 54 52 52 48 44 43 42 41 42 43 50 50 50 49 48 47 45 41 35 31 28 26 23 18 16 17 19 20 21 23 25
95 83 87 92 98 100 100 91 81 78 69 62 54 49 48 41 36 36 38 38 43 49 51 51 48 48 48 49 46 44 39 34 30 27 23 20 21 23 23 22 22 23 25 27
77 74 77 79 88 90 93 88 84 78 64 57 50 45 41 35 33 34 35 37 40 40 43 45 48 49 48 45 42 37 33 30 27 25 24 25 27 25 24 23 25 27 28 29
80 85 80 74 69 68 67 67 69 66 61 51 45 40 37 36 36 37 38 42 44 46 46 47 49 47 45 42 38 35 31 29 29 29 31 30 28 27 26 27 29 30 31 32
48 53 57 58 58 53 46 44 43 43 45 46 42 42 38 36 35 37 43 47 49 53 56 56 52 47 43 39 36 33 33 33 34 34 33 32 31 31 31 30 31 33 33 35
33 37 40 42 46 44 41 38 34 33 35 38 41 44 44 44 45 48 48 48 47 47 49 50 49 46 41 38 36 37 37 37 37 36 37 36 35 34 34 34 35 35 35 35
30 32 28 22 21 22 23 28 29 34 37 42 46 47 47 47 49 50 52 53 51 50 50 50 46 43 42 41 40 40 40 40 39 38 38 37 38 38 38 37 38 38 36 37
25 19 19 22 21 22 28 30 31 35 40 45 46 45 48 52 53 53 50 47 51 54 54 52 49 48 45 44 42 42 42 42 41 41 41 40 40 40 40 40 40 38 38 38
30 24 23 25 25 27 29 30 33 37 41 45 48 52 55 52 52 58 59 57 59 57 54 52 49 48 47 47 45 44 44 44 43 42 41 41 43 43 42 40 40 40 39 39
22 23 25 28 31 32 32 32 37 41 43 43 44 45 49 52 53 53 50 52 57 59 56 54 53 51 50 48 46 46 47 46 44 43 44 44 45 44 43 41 41 40 40 40
25 26 31 32 33 32 30 33 41 47 49 50 49 49 49 49 48 47 50 53 57 59 57 55 54 54 54 51 49 48 47 46 45 46 47 47 46 45 44 44 43 42 42 42
32 33 32 33 30 30 34 42 46 48 52 54 55 55 54 53 51 53 54 57 59 61 61 61 60 59 56 53 51 51 50 50 50 50 48 48 47 48 46 45 45 45 45 45
39 42 44 45 44 41 43 46 50 54 54 54 53 53 54 56 58 61 64 65 67 67 64 63 63 63 60 57 55 54 54 54 52 51 51 51 51 49 47 46 47 47 47 47
Wind_Direction_500mb
141 133 135 201 214 213 216 226 230 192 220 232 275 277 282 302 300 307 307 306 300 296 293 288 279 274 269 265 262 260 258 256 252 249 247 245 243 243 242 242 254 260 254 244
334 358 211 223 220 207 217 203 249 242 258 231 258 271 274 286 293 298 301 301 302 301 295 292 289 280 271 264 259 258 256 254 250 247 245 243 240 237 237 233 229 223 218 222
230 292 72 316 213 201 203 206 201 223 229 250 250 254 270 283 290 291 294 297 301 304 303 302 295 287 275 264 257 253 252 252 249 247 244 240 239 237 231 224 214 219 227 233
161 37 283 236 334 216 214 226 220 245 261 243 246 269 283 284 282 290 297 302 304 308 315 309 302 284 274 256 250 249 250 250 248 244 239 234 228 222 209 216 224 220 214 218
141 196 305 279 218 169 169 245 230 229 248 250 263 272 277 288 292 305 305 302 300 310 314 324 302 282 269 253 245 245 246 246 242 237 231 222 213 225 223 210 219 227 219 225
122 158 215 233 204 185 102 256 227 212 232 247 232 251 243 286 298 301 301 296 296 304 299 308 298 276 259 246 241 241 241 238 234 226 220 223 225 214 210 211 209 212 217 246
174 208 279 241 233 151 146 240 210 228 239 242 186 243 282 290 299 299 291 286 293 289 285 285 273 257 246 237 237 239 239 234 227 225 222 211 205 200 206 205 209 226 244 262
116 112 262 190 144 178 224 118 199 227 239 260 275 280 285 298 299 292 286 285 284 282 278 272 254 243 237 236 239 236 231 228 217 210 201 190 185 203 198 204 212 218 223 266
184 209 217 187 209 216 234 257 264 268 266 265 266 276 290 288 287 287 283 279 276 271 266 257 246 240 239 240 238 233 224 211 200 190 185 183 195 196 203 205 216 232 250 281
91 243 221 211 215 228 235 244 248 252 267 280 276 281 277 274 284 283 279 274 270 263 256 249 243 240 237 233 231 217 206 196 188 184 182 192 190 194 200 210 222 237 262 278
254 271 195 232 229 238 239 245 261 274 280 278 275 274 264 280 283 281 277 271 263 255 248 244 241 238 233 225 210 200 193 188 185 185 187 189 189 195 206 216 226 254 275 286
220 224 206 254 263 265 261 265 270 271 276 276 269 260 279 283 280 277 273 263 253 248 244 239 233 228 216 201 197 193 188 187 186 190 187 190 196 203 214 230 248 272 288 293
236 251 258 263 269 270 270 271 274 277 276 272 266 276 277 277 276 273 263 251 244 242 239 230 221 210 197 192 189 189 191 189 189 189 191 196 202 212 227 236 263 278 290 304
249 253 259 261 259 269 270 275 272 270 267 262 267 271 277 282 275 264 253 246 239 235 227 217 203 194 190 188 188 188 188 191 190 192 196 202 209 219 233 252 268 277 285 290
260 255 257 268 268 267 272 270 264 265 266 263 264 266 277 279 266 253 238 232 227 222 211 195 190 188 187 187 187 188 191 190 192 197 203 210 220 235 246 254 262 272 279 284
265 267 263 259 261 264 265 262 262 264 258 256 261 268 274 264 245 234 230 225 214 199 190 186 186 186 187 187 187 190 191 193 200 206 213 223 233 239 244 254 264 270 273 276
250 254 252 251 254 256 256 261 263 262 260 256 259 264 255 239 226 218 211 201 190 187 184 184 184 185 187 189 191 193 197 202 209 218 227 234 238 243 252 262 268 272 272 273
258 261 257 259 262 264 265 263 261 258 255 253 253 243 229 221 214 200 189 183 177 181 184 184 187 189 189 190 194 200 206 213 221 228 233 237 241 249 258 262 266 268 271 273
258 255 254 254 256 257 258 258 255 250 245 240 231 223 215 209 198 189 184 184 187 188 185 186 188 189 193 197 202 210 217 223 229 233 237 241 247 252 257 262 267 269 269 270
277 276 269 261 256 252 250 251 247 239 231 220 211 205 201 192 188 189 191 195 196 193 192 192 192 195 198 204 212 218 223 229 233 235 240 244 247 253 260 265 269 268 269 271
289 283 276 256 247 246 248 244 237 227 215 206 205 201 197 191 191 193 196 197 193 194 196 197 198 202 207 213 217 223 228 233 238 241 245 247 250 254 260 265 269 270 271 271
296 272 241 224 218 228 235 228 212 206 206 202 197 197 196 196 198 199 202 202 196 197 199 200 202 208 213 219 222 227 231 235 239 242 244 248 253 257 260 264 267 270 272 273
293 272 240 238 233 231 229 226 216 208 205 201 200 199 200 203 203 201 199 196 198 202 202 205 208 213 219 225 228 231 235 239 242 245 248 251 254 257 260 264 268 271 273 274
296 274 256 245 244 241 233 225 214 207 203 203 205 206 208 204 205 209 211 206 204 204 206 209 213 218 224 229 232 236 238 241 245 248 250 252 255 259 263 267 270 272 273 275
298 273 256 251 252 250 233 219 213 209 204 203 204 206 209 211 216 216 209 207 210 211 212 215 219 224 229 233 236 239 242 244 247 250 251 253 258 262 265 267 271 274 275 275
297 283 268 256 253 243 231 223 218 213 212 211 210 209 210 211 210 210 211 212 213 214 217 221 226 230 233 236 239 243 245 246 248 250 254 257 260 263 266 269 272 274 275 276
283 279 264 252 242 231 228 223 220 218 218 219 222 221 219 218 215 214 214 215 216 218 221 225 230 234 238 240 242 245 247 249 250 252 256 258 261 264 268 271 272 273 274 275
Wind_Speed_850mb
5 10 8 8 22 31 29 26 20 7 14 13 17 11 26 53 47 41 48 54 58 63 63 57 50 55 54 54 50 45 42 41 40 37 35 32 29 26 20 16 14 13 13 11
2 6 2 7 12 13 12 8 13 17 26 16 41 45 48 53 53 52 49 54 55 54 49 59 58 59 62 61 56 50 44 42 40 38 36 32 29 25 21 18 16 14 12 10
6 3 3 11 14 15 11 11 16 17 21 9 15 22 40 49 47 47 50 49 50 47 41 46 48 56 61 62 58 52 46 42 40 37 36 33 30 26 23 19 15 12 12 10
6 4 4 10 5 17 30 25 21 17 13 29 28 48 45 44 42 47 47 43 40 35 43 48 49 44 50 52 54 50 45 41 39 38 36 34 30 27 22 18 17 18 12 9
9 8 10 8 8 15 15 22 23 22 25 33 38 21 34 26 25 33 39 42 40 42 41 45 39 37 43 47 50 46 43 39 37 36 34 32 30 28 24 19 17 16 12 8
5 10 17 11 16 25 11 21 29 39 27 32 13 7 8 24 30 38 45 45 40 50 42 44 40 37 37 41 44 43 40 38 35 33 31 30 29 24 20 19 18 14 9 5
7 6 17 17 13 28 10 14 42 48 39 31 12 27 28 31 33 40 42 46 53 48 44 41 40 36 37 38 42 40 37 33 32 32 31 27 24 19 20 18 15 10 6 6
6 4 26 27 5 23 35 10 18 25 30 32 37 39 38 49 48 44 45 48 48 47 45 40 37 35 38 37 37 35 34 33 34 32 30 26 21 24 21 17 13 12 8 6
20 16 9 36 47 62 57 48 46 44 43 42 38 44 60 59 50 45 45 46 47 47 45 41 38 36 36 34 35 35 34 35 34 32 29 25 27 23 19 15 12 10 6 7
8 15 26 26 58 52 48 56 60 65 49 52 61 74 64 54 52 51 48 47 47 47 46 45 43 40 36 36 35 35 36 37 35 33 29 31 27 22 18 14 12 10 8 9
10 24 7 35 53 62 59 61 69 70 69 70 66 63 51 53 55 54 51 49 48 48 47 47 44 40 36 34 35 38 39 39 37 34 32 29 24 19 16 15 13 10 9 9
17 28 16 44 70 71 65 65 65 66 69 73 71 56 57 63 61 57 53 48 50 49 47 46 43 39 37 38 40 43 44 41 36 35 32 27 23 20 16 14 13 12 12 12
44 74 72 82 87 84 81 89 85 82 79 74 65 65 61 56 56 53 49 49 49 48 45 44 42 42 44 44 44 44 40 39 38 34 29 24 20 17 15 14 12 12 14 18
74 81 71 95 70 85 62 54 53 57 64 71 74 60 55 53 54 51 50 47 46 45 44 43 46 47 46 46 46 43 41 38 32 27 25 22 20 18 15 13 15 16 19 22
82 81 88 99 87 88 88 81 76 76 74 71 63 54 52 52 48 44 43 42 41 42 43 50 50 50 49 48 47 45 41 35 31 28 26 23 18 16 17 19 20 21 23 25
95 83 87 92 98 100 100 91 81 78 69 62 54 49 48 41 36 36 38 38 43 49 51 51 48 48 48 49 46 44 39 34 30 27 23 20 21 23 23 22 22 23 25 27
77 74 77 79 88 90 93 88 84 78 64 57 50 45 41 35 33 34 35 37 40 40 43 45 48 49 48 45 42 37 33 30 27 25 24 25 27 25 24 23 25 27 28 29
80 85 80 74 69 68 67 67 69 66 61 51 45 40 37 36 36 37 38 42 44 46 46 47 49 47 45 42 38 35 31 29 29 29 31 30 28 27 26 27 29 30 31 32
48 53 57 58 58 53 46 44 43 43 45 46 42 42 38 36 35 37 43 47 49 53 56 56 52 47 43 39 36 33 33 33 34 34 33 32 31 31 31 30 31 33 33 35
33 37 40 42 46 44 41 38 34 33 35 38 41 44 44 44 45 48 48 48 47 47 49 50 49 46 41 38 36 37 37 37 37 36 37 36 35 34 34 34 35 35 35 35
30 32 28 22 21 22 23 28 29 34 37 42 46 47 47 47 49 50 52 53 51 50 50 50 46 43 42 41 40 40 40 40 39 38 38 37 38 38 38 37 38 38 36 37
25 19 19 22 21 22 28 30 31 35 40 45 46 45 48 52 53 53 50 47 51 54 54 52 49 48 45 44 42 42 42 42 41 41 41 40 40 40 40 40 40 38 38 38
30 24 23 25 25 27 29 30 33 37 41 45 48 52 55 52 52 58 59 57 59 57 54 52 49 48 47 47 45 44 44 44 43 42 41 41 43 43 42 40 40 40 39 39
22 23 25 28 31 32 32 32 37 41 43 43 44 45 49 52 53 53 50 52 57 59 56 54 53 51 50 48 46 46 47 46 44 43 44 44 45 44 43 41 41 40 40 40
25 26 31 32 33 32 30 33 41 47 49 50 49 49 49 49 48 47 50 53 57 59 57 55 54 54 54 51 49 48 47 46 45 46 47 47 46 45 44 44 43 42 42 42
32 33 32 33 30 30 34 42 46 48 52 54 55 55 54 53 51 53 54 57 59 61 61 61 60 59 56 53 51 51 50 50 50 50 48 48 47 48 46 45 45 45 45 45
39 42 44 45 44 41 43 46 50 54 54 54 53 53 54 56 58 61 64 65 67 67 64 63 63 63 60 57 55 54 54 54 52 51 51 51 51 49 47 46 47 47 47 47
Wind_Direction_850mb
141 133 135 201 214 213 216 226 230 192 220 232 275 277 282 302 300 307 307 306 300 296 293 288 279 274 269 265 262 260 258 256 252 249 247 245 243 243 242 242 254 260 254 244
334 358 211 223 220 207 217 203 249 242 258 231 258 271 274 286 293 298 301 301 302 301 295 292 289 280 271 264 259 258 256 254 250 247 245 243 240 237 237 233 229 223 218 222
230 292 72 316 213 201 203 206 201 223 229 250 250 254 270 283 290 291 294 297 301 304 303 302 295 287 275 264 257 253 252 252 249 247 244 240 239 237 231 224 214 219 227 233
161 37 283 236 334 216 214 226 220 245 261 243 246 269 283 284 282 290 297 302 304 308 315 309 302 284 274 256 250 249 250 250 248 244 239 234 228 222 209 216 224 220 214 218
141 196 305 279 218 169 169 245 230 229 248 250 263 272 277 288 292 305 305 302 300 310 314 324 302 282 269 253 245 245 246 246 242 237 231 222 213 225 223 210 219 227 219 225
122 158 215 233 204 185 102 256 227 212 232 247 232 251 243 286 298 301 301 296 296 304 299 308 298 276 259 246 241 241 241 238 234 226 220 223 225 214 210 211 209 212 217 246
174 208 279 241 233 151 146 240 210 228 239 242 186 243 282 290 299 299 291 286 293 289 285 285 273 257 246 237 237 239 239 234 227 225 222 211 205 200 206 205 209 226 244 262
116 112 262 190 144 178 224 118 199 227 239 260 275 280 285 298 299 292 286 285 284 282 278 272 254 243 237 236 239 236 231 228 217 210 201 190 185 203 198 204 212 218 223 266
184 209 217 187 209 216 234 257 264 268 266 265 266 276 290 288 287 287 283 279 276 271 266 257 246 240 239 240 238 233 224 211 200 190 185 183 195 196 203 205 216 232 250 281
91 243 221 211 215 228 235 244 248 252 267 280 276 281 277 274 284 283 279 274 270 263 256 249 243 240 237 233 231 217 206 196 188 184 182 192 190 194 200 210 222 237 262 278
254 271 195 232 229 238 239 245 261 274 280 278 275 274 264 280 283 281 277 271 263 255 248 244 241 238 233 225 210 200 193 188 185 185 187 189 189 195 206 216 226 254 275 286
220 224 206 254 263 265 261 265 270 271 276 276 269 260 279 283 280 277 273 263 253 248 244 239 233 228 216 201 197 193 188 187 186 190 187 190 196 203 214 230 248 272 288 293
236 251 258 263 269 270 270 271 274 277 276 272 266 276 277 277 276 273 263 251 244 242 239 230 221 210 197 192 189 189 191 189 189 189 191 196 202 212 227 236 263 278 290 304
249 253 259 261 259 269 270 275 272 270 267 262 267 271 277 282 275 264 253 246 239 235 227 217 203 194 190 188 188 188 188 191 190 192 196 202 209 219 233 252 268 277 285 290
260 255 257 268 268 267 272 270 264 265 266 263 264 266 277 279 266 253 238 232 227 222 211 195 190 188 187 187 187 188 191 190 192 197 203 210 220 235 246 254 262 272 279 284
265 267 263 259 261 264 265 262 262 264 258 256 261 268 274 264 245 234 230 225 214 199 190 186 186 186 187 187 187 190 191 193 200 206 213 223 233 239 244 254 264 270 273 276
250 254 252 251 254 256 256 261 263 262 260 256 259 264 255 239 226 218 211 201 190 187 184 184 184 185 187 189 191 193 197 202 209 218 227 234 238 243 252 262 268 272 272 273
258 261 257 259 262 264 265 263 261 258 255 253 253 243 229 221 214 200 189 183 177 181 184 184 187 189 189 190 194 200 206 213 221 228 233 237 241 249 258 262 266 268 271 273
258 255 254 254 256 257 258 258 255 250 245 240 231 223 215 209 198 189 184 184 187 188 185 186 188 189 193 197 202 210 217 223 229 233 237 241 247 252 257 262 267 269 269 270
277 276 269 261 256 252 250 251 247 239 231 220 211 205 201 192 188 189 191 195 196 193 192 192 192 195 198 204 212 218 223 229 233 235 240 244 247 253 260 265 269 268 269 271
289 283 276 256 247 246 248 244 237 227 215 206 205 201 197 191 191 193 196 197 193 194 196 197 198 202 207 213 217 223 228 233 238 241 245 247 250 254 260 265 269 270 271 271
296 272 241 224 218 228 235 228 212 206 206 202 197 197 196 196 198 199 202 202 196 197 199 200 202 208 213 219 222 227 231 235 239 242 244 248 253 257 260 264 267 270 272 273
293 272 240 238 233 231 229 226 216 208 205 201 200 199 200 203 203 201 199 196 198 202 202 205 208 213 219 225 228 231 235 239 242 245 248 251 254 257 260 264 268 271 273 274
296 274 256 245 244 241 233 225 214 207 203 203 205 206 208 204 205 209 211 206 204 204 206 209 213 218 224 229 232 236 238 241 245 248 250 252 255 259 263 267 270 272 273 275
298 273 256 251 252 250 233 219 213 209 204 203 204 206 209 211 216 216 209 207 210 211 212 215 219 224 229 233 236 239 242 244 247 250 251 253 258 262 265 267 271 274 275 275
297 283 268 256 253 243 231 223 218 213 212 211 210 209 210 211 210 210 211 212 213 214 217 221 226 230 233 236 239 243 245 246 248 250 254 257 260 263 266 269 272 274 275 276
283 279 264 252 242 231 228 223 220 218 218 219 222 221 219 218 215 214 214 215 216 218 221 225 230 234 238 240 242 245 247 249 250 252 256 258 261 264 268 271 272 273 274 275